{"data":{"norad_id":67793,"epoch":"2026-09-20T21:54:41.110848Z","epoch_age_seconds":50935,"freshness":"FRESH","line1":"1 67793U 26030AF  26263.91297582  .00002060  00000+0  29916-3 0  9992","line2":"2 67793  51.9008  39.8478 0000588 138.2587 221.8420 14.79926407 34501","mean_motion":14.79926407,"eccentricity":5.88e-5,"inclination_deg":51.9008,"raan_deg":39.8478,"arg_perigee_deg":138.2587,"mean_anomaly_deg":221.842,"bstar":0.00029916,"rev_number":3450,"period_min":97.302135645992,"perigee_km":629.14438934514,"apogee_km":629.96849409388,"semimajor_km":7007.6934417195,"source":"CELESTRAK","updated_at":"2026-09-21T09:00:16.858653Z"}}